Location: Foulognes
(49.1413°N, 0.8183°W)
Time: 13:03:02
(UTC+00:00)

STARLINK-63 - Pass Details

Date: 21 October 2019
Orbit: 548 x 551 km, 53.0° (Epoch: 18 November)

Event Time Altitude Azimuth Distance (km) Brightness Sun altitude
Rises 18:55:43 0° 285° (WNW) 2,720 8.7 -19.2°
Reaches altitude 10° 18:58:00 10° 291° (WNW) 1,827 7.4 -19.6°
Maximum altitude 19:02:03 51° 8° (N) 696 4.0 -20.2°
Enters shadow 19:02:44 45° 42° (NE) 752 4.0 -20.4°
